HAWK-C

Last updated on Sun Jun 21 2026 00:03:42 GMT+0000 (Coordinated Universal Time)

1 43799U 18099AT 26171.40194090 .00005991 00000+0 21642-3 0 9994 2 43799 97.3884 224.5241 0038722 273.8819 85.7994 15.28139576414405
UTC large
Height (km)
Speed (km/s)
/
Latitude / Longitude
Inclination (degrees)
Orbital Period (minutes)
Azimuth
Elevation
Range (km)
Doppler Factor

Next 0 passes for location: London (51.5072 / 0.1276)

No passes found over London.
HAWK-C